www.pogodaiklimat.ru

Погода и климат >> Архив погоды >> Австралия >> Западная Австралия >> Джайлс


ПОГОДА в Джайлсе

  • Прогноз погоды в Джайлсе
  • Монитор погоды в Джайлсе

АРХИВ ПОГОДЫ в Джайлсе

Время (UTC), дата Ветер
(напр.,м/с)
 
Видим.   Явления Облачность Т
(С)
Тd
(С)
f
(%)
Тe
(С)
Тes
(С)
Комфортность P
(гПа)
Po
(гПа)
Тmin
(С)
Tmax
(С)
R
(мм)
R24
(мм)
S
(см)
10 17.01 ЮЗ 7 н/о н/о +38.7 +4.6 12 +36 +36 очень
жарко
1001.3 936.7
11 17.01 ЮЗ 5 н/о н/о +37.1 +4.9 14 +34 +34 очень
жарко
1002.2 937.6
12 17.01 ЮЗ 4 н/о н/о +35.4 +5.9 16 +33 +33 жарко 1003.1 938.4
13 17.01 Ю 5 н/о н/о +35.3 +6.0 16 +33 +33 жарко 1003.6 938.9
14 17.01 Ю 5 н/о н/о +35.1 +6.2 17 +33 +33 жарко 1003.7 939.0
15 17.01 ЮВ 4 н/о н/о +34.7 +7.0 18 +33 +33 жарко 1003.8 939.1
16 17.01 Ю 6 н/о н/о +34.7 +7.9 19 +33 +33 жарко 1002.1 937.5
17 17.01 ЮВ 6 н/о н/о +33.0 +8.5 22 +32 +32 жарко 1002.2 937.6
18 17.01 ЮВ 6 н/о н/о +31.9 +9.9 26 +31 +31 жарко 1002.2 937.6
19 17.01 ЮВ 5 н/о н/о +31.3 +10.7 28 +31 +31 жарко 1002.5 937.9
20 17.01 Ю 4 н/о н/о +30.6 +11.3 30 +31 +31 жарко 1003.9 939.2
21 17.01 ЮВ 4 н/о н/о +30.2 +11.6 32 +31 +31 жарко 1004.5 939.7
22 17.01 ЮВ 5 н/о н/о +30.9 +10.2 28 +31 +31 жарко 1006.0 941.1
23 17.01 ЮЗ 5 н/о н/о +31.0 +10.9 29 +31 +31 жарко 1007.1 942.2
00 18.01 Ю 6 н/о н/о +31.2 +11.7 30 +32 +32 жарко 1007.6 942.6
01 18.01 Ю 7 н/о н/о +33.8 +9.9 23 +33 +33 жарко 1007.7 942.7
02 18.01 Ю 8 н/о н/о +34.6 +10.7 23 +34 +34 очень
жарко
1008.2 943.2
03 18.01 Ю 8 н/о н/о +32.6 +12.2 29 +33 +33 жарко 1008.2 943.2
04 18.01 Ю 7 н/о н/о +34.0 +11.5 25 +34 +34 очень
жарко
1007.6 942.6
05 18.01 Ю 11 н/о н/о +34.8 +10.5 23 +34 +34 очень
жарко
1007.3 942.4
06 18.01 Ю 8 н/о н/о +33.4 +10.2 24 +33 +33 жарко 1007.5 942.5
07 18.01 Ю 9 н/о н/о +32.3 +11.7 28 +32 +32 жарко 1007.2 942.3
08 18.01 Ю 8 н/о н/о +31.7 +10.5 27 +31 +31 жарко 1006.6 941.7
09 18.01 Ю 9 н/о н/о +31.0 +10.4 28 +31 +31 жарко 1007.2 942.3
10 18.01 Ю 8 н/о н/о +30.4 +10.4 29 +30 +30 жарко 1008.0 943.0
11 18.01 ЮВ 6 н/о н/о +29.9 +11.8 33 +31 +31 жарко 1009.3 944.2
12 18.01 В 8 н/о н/о +28.4 +12.8 38 +30 +30 жарко 1010.2 945.1
13 18.01 ЮВ 8 н/о н/о +26.7 +13.9 45 +29 +29 жарко 1011.3 946.1
14 18.01 ЮВ 10 н/о н/о +25.6 +14.5 50 +28 +28 жарко 1011.2 946.0
15 18.01 ЮВ 8 н/о н/о +24.8 +14.8 54 +28 +28 жарко 1011.4 946.2
16 18.01 ЮВ 8 н/о н/о +24.9 +14.4 52 +27 +27 жарко 1011.0 945.8
17 18.01 ЮВ 7 н/о н/о +24.1 +15.1 57 +27 +27 жарко 1010.7 945.5
18 18.01 ЮВ 5 н/о н/о +24.5 +15.3 57 +27 +27 жарко 1010.6 945.4
19 18.01 ЮВ 6 н/о н/о +24.6 +15.6 57 +28 +28 душно 1010.2 945.1
20 18.01 ЮВ 6 н/о н/о +24.5 +15.8 58 +28 +28 душно 1011.1 945.9
21 18.01 Ю 6 н/о н/о +24.3 +15.8 59 +27 +27 жарко 1011.8 946.6
22 18.01 Ю 7 н/о н/о +23.7 +16.5 64 +27 +27 жарко 1012.1 946.8
23 18.01 ЮВ 8 н/о н/о +25.2 +16.3 58 +29 +29 душно 1012.7 947.4
00 19.01 ЮВ 9 н/о н/о +25.5 +15.9 55 +29 +29 душно 1012.6 947.3
01 19.01 ЮВ 7 н/о н/о +26.6 +16.1 53 +30 +30 душно 1012.6 947.3
02 19.01 Ю 7 н/о н/о +27.0 +16.2 52 +30 +30 душно 1012.6 947.3
03 19.01 Ю 7 н/о н/о +28.5 +15.0 44 +31 +31 душно 1012.3 947.0
04 19.01 Ю 8 н/о н/о +29.2 +15.1 42 +32 +32 душно 1011.2 946.0
05 19.01 ЮВ 8 н/о н/о +31.9 +14.5 35 +34 +34 душно 1010.1 945.0
06 19.01 Ю 8 н/о н/о +34.3 +13.8 29 +35 +35 очень
жарко
1009.4 944.3
07 19.01 Ю 8 н/о н/о +34.4 +13.1 28 +35 +35 очень
жарко
1009.0 943.9
08 19.01 Ю 8 н/о н/о +33.6 +12.5 28 +34 +34 очень
жарко
1008.6 943.6
09 19.01 ЮВ 8 н/о н/о +33.6 +12.3 27 +34 +34 очень
жарко
1008.2 943.2
10 19.01 Ю 8 н/о н/о +31.4 +11.7 30 +32 +32 жарко 1009.2 944.1
11 19.01 Ю 8 н/о н/о +29.7 +12.0 34 +31 +31 жарко 1009.6 944.5
12 19.01 Ю 7 н/о н/о +28.9 +12.4 36 +30 +30 жарко 1010.6 945.4
13 19.01 ЮВ 7 н/о н/о +28.7 +11.6 35 +30 +30 жарко 1012.4 947.1
14 19.01 ЮВ 5 н/о н/о +28.7 +11.6 35 +30 +30 жарко 1012.4 947.1
15 19.01 ЮВ 5 н/о н/о +27.6 +12.7 40 +29 +29 жарко 1012.7 947.4
16 19.01 ЮВ 5 н/о н/о +26.2 +13.8 46 +28 +28 жарко 1011.7 946.5
17 19.01 В 5 н/о н/о +22.5 +18.1 76 +28 +28 душно 1011.3 946.1
18 19.01 В 6 н/о н/о +22.6 +19.5 83 +29 +29 очень
душно
1010.9 945.7
19 19.01 В 8 н/о н/о +23.0 +19.2 79 +29 +29 очень
душно
1010.0 944.9
20 19.01 В 6 н/о н/о +22.7 +19.3 81 +29 +29 очень
душно
1011.3 946.1
21 19.01 В 6 н/о н/о +23.1 +18.9 77 +29 +29 очень
душно
1011.0 945.8
22 19.01 В 6 н/о н/о +24.2 +18.0 68 +28 +28 душно 1011.3 946.1
23 19.01 В 4 н/о н/о +25.3 +17.8 63 +30 +30 душно 1012.3 947.0
00 20.01 ЮВ 7 н/о н/о +26.6 +16.3 53 +30 +30 душно 1012.9 947.6
01 20.01 ЮВ 7 н/о н/о +28.4 +14.5 43 +31 +31 душно 1012.5 947.2
02 20.01 ЮВ 7 н/о н/о +30.3 +11.4 31 +31 +31 жарко 1011.8 946.6
03 20.01 ЮВ 8 н/о н/о +34.2 +10.8 24 +34 +34 очень
жарко
1010.8 945.6
04 20.01 В 7 н/о н/о +35.8 +9.0 20 +34 +34 очень
жарко
1009.6 944.5
05 20.01 В 4 н/о н/о +36.7 +8.7 18 +35 +35 очень
жарко
1008.6 943.6
06 20.01 В 6 н/о н/о +38.4 +5.9 14 +36 +36 очень
жарко
1007.8 942.8
07 20.01 СВ 4 н/о н/о +38.3 +6.0 14 +36 +36 очень
жарко
1006.9 942.0
08 20.01 Ю 8 н/о н/о +35.2 +7.9 19 +33 +33 жарко 1006.6 941.7
09 20.01 Ю 7 н/о н/о +33.1 +8.4 22 +32 +32 жарко 1006.9 942.0
12 20.01 ЮВ 6 н/о н/о +29.6 +11.4 32 +30 +30 жарко 1009.0 943.9
13 20.01 ЮВ 5 н/о н/о +28.9 +11.7 34 +30 +30 жарко 1009.5 944.4
14 20.01 ЮВ 5 н/о н/о +28.8 +11.1 33 +29 +29 жарко 1009.2 944.1
15 20.01 ЮВ 5 н/о н/о +28.1 +11.2 35 +29 +29 жарко 1008.5 943.5
16 20.01 ЮВ 4 н/о н/о +27.0 +11.7 39 +28 +28 жарко 1007.9 942.9
17 20.01 ЮВ 4 н/о н/о +26.1 +11.8 41 +27 +27 жарко 1007.3 942.4
18 20.01 ЮВ 4 н/о н/о +24.3 +12.2 47 +26 +26 жарко 1007.1 942.2
19 20.01 ЮВ 5 н/о н/о +25.4 +10.8 40 +26 +26 жарко 1006.5 941.6
21 20.01 ЮВ 4 н/о н/о +24.1 +11.1 44 +25 +25 комфорт 1007.1 942.2
22 20.01 ЮВ 4 н/о н/о +24.9 +11.3 43 +26 +26 жарко 1007.3 942.4
23 20.01 ЮВ 6 н/о н/о +29.8 +9.7 29 +30 +30 жарко 1007.5 942.5
00 21.01 ЮВ 2 н/о н/о +32.1 +9.6 25 +31 +31 жарко 1008.0 943.0
02 21.01 С 7 н/о н/о +38.7 +4.1 12 +36 +36 очень
жарко
1007.0 942.2
01 21.01 СВ 7 н/о н/о +37.4 +5.7 14 +35 +35 очень
жарко
1007.5 942.5
04 21.01 0 н/о
05 21.01 С 6 н/о н/о +42.0 -1.4 7 +38 +38 очень
жарко
1004.5 939.7
06 21.01 В 3 н/о н/о +41.7 +1.1 8 +38 +38 очень
жарко
1003.7 939.0
08 21.01 С 3 н/о н/о +41.4 +4.1 10 +38 +38 очень
жарко
1002.6 938.0
07 21.01 СВ 4 н/о н/о +41.7 +2.4 9 +38 +38 очень
жарко
1003.0 938.3
09 21.01 СВ 4 н/о н/о +41.7 +0.7 8 +38 +38 очень
жарко
1002.5 937.9
10 21.01 СВ 9 н/о н/о +36.1 +7.6 17 +34 +34 очень
жарко
1003.7 939.0
11 21.01 ЮВ 7 н/о н/о +38.7 +1.4 10 +35 +35 очень
жарко
1003.6 938.9
12 21.01 В 3 н/о н/о +36.3 +5.8 15 +34 +34 очень
жарко
1004.9 940.1
14 21.01 ЮВ 4 н/о н/о +34.2 +6.9 18 +32 +32 жарко 1005.7 940.9
13 21.01 ЮВ 3 н/о н/о +36.2 +5.5 15 +34 +34 очень
жарко
1005.9 941.0
15 21.01 ЮВ 4 н/о н/о +32.8 +7.5 21 +31 +31 жарко 1005.7 940.9
16 21.01 В 6 н/о н/о +33.0 +7.9 21 +31 +31 жарко 1005.3 940.5
17 21.01 В 5 н/о н/о +31.6 +8.8 24 +31 +31 жарко 1005.2 940.4
18 21.01 В 4 н/о н/о +30.9 +8.4 25 +30 +30 жарко 1005.1 940.3
20 21.01 В 5 н/о н/о +29.1 +9.1 29 +29 +29 жарко 1004.6 939.8
19 21.01 В 5 н/о н/о +29.6 +8.9 27 +29 +29 жарко 1004.6 939.8
21 21.01 В 6 н/о н/о +28.9 +8.8 28 +28 +28 жарко 1004.2 939.5
22 21.01 В 6 н/о н/о +30.8 +8.2 24 +30 +30 жарко 1004.9 940.1
23 21.01 В 6 н/о н/о +33.3 +6.4 19 +31 +31 жарко 1005.1 940.3
00 22.01 СВ 7 н/о н/о +36.8 +5.2 14 +34 +34 очень
жарко
1005.2 940.5
02 22.01 С 9 н/о н/о +40.4 +4.6 11 +37 +37 очень
жарко
1004.7 939.9
01 22.01 СВ 7 н/о н/о +39.3 +5.2 12 +36 +36 очень
жарко
1005.0 940.2
03 22.01 СВ 6 н/о н/о +40.8 +6.2 12 +38 +38 очень
жарко
1004.2 939.5
04 22.01 С 9 н/о н/о +42.2 +3.4 9 +39 +39 очень
жарко
1003.4 938.7
05 22.01 СВ 4 н/о н/о +41.5 +4.7 11 +39 +39 очень
жарко
1002.6 938.0
06 22.01 СВ 4 н/о н/о +42.2 +4.6 10 +39 +39 очень
жарко
1001.9 937.3
08 22.01 СЗ 7 н/о н/о +40.8 +5.3 12 +38 +38 очень
жарко
1000.5 936.0
07 22.01 С 5 н/о н/о +42.9 +3.7 9 +40 +40 очень
жарко
1001.0 936.5
09 22.01 С 6 н/о н/о +40.4 +5.8 12 +38 +38 очень
жарко
1000.7 936.2
10 22.01 С 6 н/о н/о +38.6 +8.7 16 +37 +37 очень
жарко
1002.0 937.4
11 22.01 В 11 н/о н/о +30.1 +15.6 41 +33 +33 душно 1004.1 939.4
12 22.01 В 11 н/о н/о +24.1 +19.0 73 +29 +29 душно 1006.8 941.9
14 22.01 В 9 н/о н/о +27.1 +15.8 50 +30 +30 душно 1007.2 942.3
13 22.01 В 8 н/о н/о +24.6 +18.4 68 +29 +29 душно 1007.5 942.5
15 22.01 СВ 8 н/о н/о +28.0 +15.0 45 +31 +31 душно 1006.0 941.1
16 22.01 С 5 н/о н/о +28.1 +15.3 46 +31 +31 душно 1004.4 939.6
17 22.01 СЗ 5 н/о н/о +27.7 +14.4 44 +30 +30 жарко 1003.4 938.7
18 22.01 С 4 н/о н/о +26.8 +15.0 48 +29 +29 жарко 1004.1 939.4
20 22.01 С 2 н/о н/о +26.6 +16.3 53 +30 +30 душно 1004.9 940.1
19 22.01 С 4 н/о н/о +27.2 +15.2 48 +30 +30 душно 1004.6 939.8
21 22.01 С 3 н/о н/о +26.9 +16.3 52 +30 +30 душно 1005.4 940.6
22 22.01 С 4 н/о н/о +29.1 +15.8 45 +32 +32 душно 1006.0 941.1
23 22.01 С 6 н/о н/о +30.8 +14.7 38 +33 +33 душно 1006.3 941.4
00 23.01 С 6 н/о н/о +33.1 +13.8 31 +34 +34 очень
жарко
1006.3 941.4
02 23.01 С 5 н/о н/о +36.8 +11.6 22 +36 +36 очень
жарко
1005.5 940.7
01 23.01 С 4 н/о н/о +35.0 +13.8 28 +36 +36 очень
жарко
1006.0 941.1
03 23.01 СВ 5 н/о н/о +38.8 +11.5 20 +38 +38 очень
жарко
1004.8 940.0
04 23.01 СВ 5 н/о н/о +39.5 +9.8 17 +38 +38 очень
жарко
1003.8 939.1
05 23.01 С 2 н/о н/о +39.7 +9.6 16 +38 +38 очень
жарко
1003.0 938.3
06 23.01 СВ 4 н/о н/о +40.2 +8.9 15 +38 +38 очень
жарко
1002.3 937.7
08 23.01 С 6 н/о н/о +40.2 +8.3 15 +38 +38 очень
жарко
1001.3 936.7
07 23.01 С 7 н/о н/о +39.6 +7.9 15 +37 +37 очень
жарко
1002.0 937.4
09 23.01 З 5 н/о н/о +35.5 +14.6 29 +37 +37 душно 1002.0 937.4
10 23.01 СЗ 5 н/о н/о +35.3 +13.8 28 +36 +36 очень
жарко
1002.4 937.8
11 23.01 штиль 0 н/о н/о +33.2 +16.5 37 +36 +36 очень
душно
1003.4 938.7
12 23.01 В 1 н/о н/о +32.5 +17.6 41 +36 +36 очень
душно
1003.5 938.8
14 23.01 В 2 н/о н/о +31.8 +17.4 42 +36 +36 очень
душно
1003.7 939.0
13 23.01 В 2 н/о н/о +31.8 +18.0 44 +36 +36 очень
душно
1003.7 939.0
15 23.01 штиль 0 н/о н/о +31.0 +18.5 47 +36 +36 очень
душно
1003.5 938.8
16 23.01 В 2 н/о н/о +30.6 +17.6 46 +35 +35 очень
душно
1003.1 938.4
17 23.01 В 3 н/о н/о +30.9 +15.2 39 +33 +33 душно 1002.6 938.0
18 23.01 В 2 н/о н/о +29.1 +19.3 56 +35 +35 очень
душно
1002.6 938.0
20 23.01 В 3 н/о н/о +27.8 +19.0 59 +33 +33 очень
душно
1002.6 938.0
19 23.01 В 2 н/о н/о +29.2 +18.4 52 +34 +34 очень
душно
1002.5 937.9
21 23.01 Ю 5 н/о н/о +29.4 +16.2 45 +33 +33 душно 1003.7 939.0
22 23.01 Ю 3 н/о н/о +30.2 +16.3 43 +33 +33 душно 1004.6 939.8
23 23.01 Ю 3 н/о н/о +30.3 +18.5 49 +35 +35 очень
душно
1005.6 940.8
00 24.01 В 5 н/о н/о +34.6 +14.1 29 +36 +36 душно 1005.6 940.8
02 24.01 С 6 н/о н/о +38.3 +11.1 20 +37 +37 очень
жарко
1004.6 939.8
01 24.01 СВ 5 н/о н/о +35.8 +13.4 26 +36 +36 очень
жарко
1005.4 940.6
03 24.01 СЗ 5 н/о н/о +38.1 +11.6 20 +37 +37 очень
жарко
1003.8 939.1
04 24.01 С 5 н/о н/о +39.1 +9.9 17 +37 +37 очень
жарко
1003.1 938.4
05 24.01 СВ 3 н/о н/о +40.1 +7.7 14 +38 +38 очень
жарко
1001.9 937.3
06 24.01 В 4 н/о н/о +40.9 +7.5 13 +38 +38 очень
жарко
1001.1 936.6
08 24.01 СВ 6 н/о н/о +40.6 +6.9 13 +38 +38 очень
жарко
999.9 935.4
07 24.01 В 5 н/о н/о +41.1 +6.0 12 +38 +38 очень
жарко
1000.5 936.0
09 24.01 СЗ 9 н/о н/о +38.7 +9.8 18 +37 +37 очень
жарко
999.9 935.4
10 24.01 СЗ 4 н/о н/о +38.0 +10.1 19 +37 +37 очень
жарко
1000.6 936.1

 

Местоположение метеостанции Джайлс (Западная Австралия, Австралия): широта -25.03 долгота 128.30 высота над уровнем моря 599 м.

В архиве по умолчанию представлена погода в Джайлсе за последнюю неделю. Архивные данные за месяц целиком и за предыдущие месяцы, начиная с января 2011 года, Вы можете получить, выбрав интересующий диапазон дат из раскрывающегося списка и нажав кнопку "Ввод!".


*Определитесь, кто Вы:
робот инопланетянин человек

Внимание! Время в таблицах - всемирное. Для получения местного времени необходимо прибавить поправку, которая равна 8 ч.

Смотрите также архив погоды в соседних городах и на ближайших метеорологических станциях:

Погода в Уорбертоне (Западная Австралия, Австралия) (212 км)
Погода в Кинторе (Северная территория, Австралия) (224 км)
Погода в Юларе (Северная территория, Австралия) (271 км)
Погода в Эрнабелле (Южная Австралия, Австралия) (413 км)
Погода в Раббит Флат (Северная территория, Австралия) (568 км)
Погода в Элис-Спрингсе (Северная территория, Австралия) (581 км)
Погода на Виноградной ферма (Северная территория, Австралия) (614 км)
Погода в Форресте (Западная Австралия, Австралия) (645 км)
Погода в Лавертоне (Западная Австралия, Австралия) (707 км)
Погода в Телфере (Западная Австралия, Австралия) (723 км)

Пояснения к столбцам:

Ветер - указаны скорость ветра в м/с - средняя за 10 мин, порывы в срок и между сроками (в фигурных скобках) и направление, откуда дует ветер: С - северный, СВ - северо-восточный, В - восточный, ЮВ - юго-восточный, Ю - южный, ЮЗ - юго-западный, З - западный, СЗ - северо-западный.
Видимость - горизонтальная дальность видимости в метрах или километрах. При видимости от 1 до 10 км при отсутствии осадков обычно наблюдается дымка, при ухудшении видимости до 1 км и менее - туман. В сухую погоду видимость может ухудшаться дымом, пылью или мглою.
Явления - указаны атмосферные явления, наблюдавшиеся в срок или в последний час перед сроком; фигурными скобками обозначены явления, наблюдавшиеся между сроками (за 1-3 часа до срока); квадратными скобками обозначены град или гололедные отложения с указанием их диаметра в мм.
Облачность - указаны через наклонную черту общая и нижняя облачность в баллах и высота нижней границы облаков в метрах; квадратными скобками обозначены формы облаков: Ci - перистые, Cs - перисто-слоистые, Cc - перисто-кучевые, Ac - высококучевые, As - высокослоистые, Sc - слоисто-кучевые, Ns - слоисто-дождевые, Cu - кучевые, Cb - кучево-дождевые. Подробнее классификацию облаков см. в Атласе облаков (PDF).
T - Температура воздуха - температура, измеренная на высоте 2 м над землей.
Td - Температура точки росы - температура, при понижении до которой содержащийся в воздухе водяной пар достигнет насыщения.
f - Относительная влажность воздуха - влажноcть воздуха, измеренная на высоте 2 м над землей.
Te - Эффективная температура - температура, которую ощущает одетый по сезону человек в тени. Характеристика душности погоды. При расчете учитывается влияние влажности воздуха и скорости ветра на теплоощущения человека.
Tes - Эффективная температура на солнце - температура, которую ощущает человек, с поправкой на солнечный нагрев. Характеристика знойности погоды. Зависит от высоты солнца над горизонтом, облачности и скорости ветра. Ночью, в пасмурную погоду, а также при ветре 12 м/с и более поправка равна нулю.
P - Атмосферное давление - приведенное к уровню моря атмосферное давление.
Po - Атмосферное давление - измеренное на уровне метеостанции атмосферное давление.
Tmin - Минимальная температура - минимум температуры воздуха на высоте 2 м над землей.
Tmax - Максимальная температура - максимум температуры воздуха на высоте 2 м над землей.
R - Количество осадков - Количество выпавших осадков за период времени, мм. При наведении курсора мыши на число - период времени, за который выпало указанное количество осадков.
R24 - Количество осадков - Количество выпавших осадков за 24 часа, мм.
S - Снежный покров - Высота снежного покрова, см. При наведении курсора мыши на число - состояние снежного покрова и степень покрытия местности в баллах.